• în România
  • Lista ţărilor
  • Pe 7 zile
  • Temperatura apei
  • Hartă satelitară
  • Meteo pe hartă
  • Widget-uri
  • user-avatar
    Intrare

    Meteo pe oră la Mayrhofen

    Astăzi, 23 Iunie, Vineri

    Timp Temperatura Precipitaţii Vânt Presiune Umiditate
    00:00 +11°C° 0,5 mm 1 m/s 620 mmHg 88%
    01:00 +10°C° 0,5 mm 1 m/s 620 mmHg 88%
    02:00 +10°C° 0,2 mm 1 m/s 620 mmHg 88%
    03:00 +10°C° 0,2 mm 1 m/s 619 mmHg 87%
    04:00 +10°C° 0,2 mm 1 m/s 619 mmHg 86%
    05:00 +12°C° 0,1 mm 1 m/s 620 mmHg 83%
    06:00 +14°C° 0,1 mm 1 m/s 621 mmHg 80%
    07:00 +16°C° 0,1 mm 1 m/s 622 mmHg 77%
    08:00 +18°C° 0,1 mm 2 m/s 623 mmHg 67%
    09:00 +20°C° 0,1 mm 2 m/s 623 mmHg 57%
    10:00 +23°C° 0,1 mm 2 m/s 624 mmHg 47%
    11:00 +23°C° 0,3 mm 2 m/s 624 mmHg 48%
    12:00 +23°C° 0,3 mm 2 m/s 624 mmHg 50%
    13:00 +22°C° 0,3 mm 3 m/s 624 mmHg 51%
    14:00 +23°C° 0,5 mm 2 m/s 624 mmHg 55%
    15:00 +21°C° 0,5 mm 2 m/s 624 mmHg 59%
    16:00 +21°C° 0,5 mm 2 m/s 624 mmHg 63%
    17:00 +20°C° 0,4 mm 2 m/s 623 mmHg 70%
    18:00 +19°C° 0,4 mm 1 m/s 623 mmHg 77%
    19:00 +18°C° 0,4 mm 1 m/s 622 mmHg 84%
    20:00 +15°C° 0,1 mm 1 m/s 622 mmHg 88%
    21:00 +13°C° 0,1 mm 1 m/s 621 mmHg 91%
    22:00 +11°C° 0,1 mm 1 m/s 621 mmHg 94%
    23:00 +11°C° 0 mm 1 m/s 621 mmHg 94%

    Mâine, 24 Iunie, Sâmbătă

    Timp Temperatura Precipitaţii Vânt Presiune Umiditate
    00:00 +11°C° 0 mm 1 m/s 621 mmHg 94%
    01:00 +10°C° 0 mm 1 m/s 620 mmHg 94%
    02:00 +10°C° 0 mm 1 m/s 620 mmHg 95%
    03:00 +9°C° 0 mm 1 m/s 620 mmHg 95%
    04:00 +9°C° 0 mm 1 m/s 619 mmHg 95%
    05:00 +11°C° 0 mm 1 m/s 620 mmHg 90%
    06:00 +13°C° 0 mm 0 m/s 621 mmHg 84%
    07:00 +15°C° 0 mm 0 m/s 622 mmHg 78%
    08:00 +17°C° 0 mm 0 m/s 623 mmHg 68%
    09:00 +21°C° 0 mm 1 m/s 624 mmHg 58%
    10:00 +23°C° 0 mm 1 m/s 625 mmHg 48%
    11:00 +24°C° 0,3 mm 1 m/s 624 mmHg 50%
    12:00 +24°C° 0,3 mm 1 m/s 624 mmHg 51%
    13:00 +24°C° 0,3 mm 1 m/s 624 mmHg 52%
    14:00 +23°C° 0,9 mm 1 m/s 623 mmHg 57%
    15:00 +22°C° 0,9 mm 1 m/s 623 mmHg 62%
    16:00 +22°C° 0,9 mm 1 m/s 622 mmHg 67%
    17:00 +20°C° 1,5 mm 1 m/s 622 mmHg 75%
    18:00 +19°C° 1,5 mm 1 m/s 621 mmHg 83%
    19:00 +16°C° 1,5 mm 1 m/s 621 mmHg 91%
    20:00 +15°C° 1,5 mm 1 m/s 621 mmHg 93%
    21:00 +14°C° 1,5 mm 1 m/s 620 mmHg 95%
    22:00 +11°C° 1,5 mm 0 m/s 620 mmHg 97%
    23:00 +11°C° 0,6 mm 0 m/s 620 mmHg 97%

    Poimâine, 25 Iunie, Duminică

    Timp Temperatura Precipitaţii Vânt Presiune Umiditate
    00:00 +10°C° 0,6 mm 0 m/s 619 mmHg 97%
    01:00 +10°C° 0,6 mm 0 m/s 619 mmHg 97%
    02:00 +10°C° 0,3 mm 0 m/s 619 mmHg 97%
    03:00 +10°C° 0,3 mm 0 m/s 619 mmHg 97%
    04:00 +11°C° 0,3 mm 1 m/s 618 mmHg 97%
    05:00 +12°C° 0,3 mm 1 m/s 619 mmHg 95%
    06:00 +13°C° 0,3 mm 1 m/s 619 mmHg 93%
    07:00 +14°C° 0,3 mm 1 m/s 620 mmHg 91%
    08:00 +15°C° 0,5 mm 1 m/s 620 mmHg 85%
    09:00 +16°C° 0,5 mm 1 m/s 620 mmHg 80%
    10:00 +18°C° 0,5 mm 1 m/s 621 mmHg 75%
    11:00 +18°C° 0,6 mm 1 m/s 621 mmHg 72%
    12:00 +19°C° 0,6 mm 1 m/s 621 mmHg 70%
    13:00 +20°C° 0,6 mm 1 m/s 621 mmHg 67%
    14:00 +18°C° 0,6 mm 2 m/s 621 mmHg 69%
    15:00 +18°C° 0,6 mm 2 m/s 621 mmHg 70%
    16:00 +18°C° 0,6 mm 2 m/s 621 mmHg 72%
    17:00 +17°C° 0,3 mm 2 m/s 620 mmHg 76%
    18:00 +16°C° 0,3 mm 2 m/s 620 mmHg 81%
    19:00 +15°C° 0,3 mm 1 m/s 620 mmHg 86%
    20:00 +13°C° 0,1 mm 1 m/s 620 mmHg 89%
    21:00 +11°C° 0,1 mm 1 m/s 620 mmHg 93%
    22:00 +10°C° 0,1 mm 1 m/s 619 mmHg 97%
    23:00 +9°C° 0 mm 1 m/s 619 mmHg 97%

    26 Iunie, Luni

    Timp Temperatura Precipitaţii Vânt Presiune Umiditate
    00:00 +8°C° 0 mm 1 m/s 619 mmHg 97%
    01:00 +8°C° 0 mm 1 m/s 618 mmHg 97%
    02:00 +7°C° 0 mm 1 m/s 618 mmHg 97%
    03:00 +5°C° 0 mm 0 m/s 617 mmHg 97%
    04:00 +5°C° 0 mm 0 m/s 617 mmHg 97%
    05:00 +7°C° 0 mm 0 m/s 618 mmHg 92%
    06:00 +10°C° 0 mm 0 m/s 619 mmHg 86%
    07:00 +13°C° 0 mm 0 m/s 621 mmHg 81%
    08:00 +16°C° 0 mm 1 m/s 621 mmHg 74%
    09:00 +19°C° 0 mm 1 m/s 622 mmHg 66%
    10:00 +20°C° 0 mm 1 m/s 622 mmHg 58%
    11:00 +21°C° 0,1 mm 1 m/s 622 mmHg 57%
    12:00 +21°C° 0,1 mm 2 m/s 622 mmHg 56%
    13:00 +21°C° 0,1 mm 2 m/s 622 mmHg 55%
    14:00 +21°C° 0,3 mm 2 m/s 622 mmHg 58%
    15:00 +20°C° 0,3 mm 2 m/s 621 mmHg 61%
    16:00 +20°C° 0,3 mm 2 m/s 621 mmHg 64%
    17:00 +19°C° 0,8 mm 2 m/s 620 mmHg 72%
    18:00 +19°C° 0,8 mm 1 m/s 620 mmHg 80%
    19:00 +16°C° 0,8 mm 1 m/s 619 mmHg 87%
    20:00 +15°C° 0,7 mm 1 m/s 619 mmHg 90%
    21:00 +14°C° 0,7 mm 1 m/s 619 mmHg 93%
    22:00 +13°C° 0,7 mm 2 m/s 618 mmHg 96%
    23:00 +13°C° 0,3 mm 2 m/s 618 mmHg 96%

    27 Iunie, Marţi

    Timp Temperatura Precipitaţii Vânt Presiune Umiditate
    00:00 +12°C° 0,3 mm 2 m/s 618 mmHg 96%
    01:00 +12°C° 0,3 mm 2 m/s 618 mmHg 96%
    02:00 +12°C° 0,2 mm 2 m/s 617 mmHg 96%
    03:00 +12°C° 0,2 mm 2 m/s 617 mmHg 96%
    04:00 +12°C° 0,2 mm 2 m/s 617 mmHg 96%
    05:00 +12°C° 0,2 mm 2 m/s 617 mmHg 94%
    06:00 +13°C° 0,2 mm 2 m/s 617 mmHg 92%
    07:00 +14°C° 0,2 mm 1 m/s 618 mmHg 91%
    08:00 +15°C° 0,3 mm 2 m/s 618 mmHg 82%
    09:00 +17°C° 0,3 mm 2 m/s 618 mmHg 74%
    10:00 +18°C° 0,3 mm 2 m/s 619 mmHg 66%
    11:00 +19°C° 0,5 mm 2 m/s 619 mmHg 63%
    12:00 +20°C° 0,5 mm 2 m/s 619 mmHg 61%
    13:00 +21°C° 0,5 mm 2 m/s 619 mmHg 58%
    14:00 +20°C° 0,9 mm 2 m/s 619 mmHg 62%
    15:00 +20°C° 0,9 mm 2 m/s 618 mmHg 65%
    16:00 +19°C° 0,9 mm 2 m/s 618 mmHg 69%
    17:00 +18°C° 1,1 mm 2 m/s 618 mmHg 75%
    18:00 +18°C° 1,1 mm 1 m/s 618 mmHg 81%
    19:00 +16°C° 1,1 mm 1 m/s 617 mmHg 86%
    20:00 +15°C° 1,3 mm 1 m/s 617 mmHg 89%
    21:00 +13°C° 1,3 mm 1 m/s 617 mmHg 93%
    22:00 +12°C° 1,3 mm 1 m/s 616 mmHg 96%
    23:00 +12°C° 1 mm 1 m/s 616 mmHg 96%

    28 Iunie, Miercuri

    Timp Temperatura Precipitaţii Vânt Presiune Umiditate
    00:00 +11°C° 1 mm 1 m/s 616 mmHg 96%
    01:00 +11°C° 1 mm 1 m/s 616 mmHg 96%
    02:00 +11°C° 0,3 mm 1 m/s 615 mmHg 95%
    03:00 +11°C° 0,3 mm 1 m/s 615 mmHg 95%
    04:00 +10°C° 0,3 mm 1 m/s 614 mmHg 95%
    05:00 +12°C° 0 mm 1 m/s 615 mmHg 92%
    06:00 +13°C° 0 mm 1 m/s 615 mmHg 89%
    07:00 +14°C° 0 mm 1 m/s 615 mmHg 86%
    08:00 +16°C° 0,1 mm 2 m/s 616 mmHg 80%
    09:00 +17°C° 0,1 mm 2 m/s 616 mmHg 73%
    10:00 +18°C° 0,1 mm 2 m/s 616 mmHg 67%
    11:00 +19°C° 0,5 mm 2 m/s 616 mmHg 67%
    12:00 +19°C° 0,5 mm 3 m/s 615 mmHg 66%
    13:00 +19°C° 0,5 mm 3 m/s 615 mmHg 66%
    14:00 +19°C° 1 mm 3 m/s 614 mmHg 67%
    15:00 +19°C° 1 mm 3 m/s 614 mmHg 67%
    16:00 +19°C° 1 mm 3 m/s 613 mmHg 68%
    17:00 +18°C° 0,6 mm 3 m/s 612 mmHg 73%
    18:00 +17°C° 0,6 mm 3 m/s 612 mmHg 77%
    19:00 +14°C° 0,6 mm 3 m/s 611 mmHg 82%
    20:00 +13°C° 0,6 mm 3 m/s 610 mmHg 85%
    21:00 +13°C° 0,6 mm 2 m/s 610 mmHg 89%
    22:00 +10°C° 0,6 mm 2 m/s 610 mmHg 93%
    23:00 +10°C° 0,2 mm 2 m/s 609 mmHg 94%
    Arată mai mult